| time (UTC) | temp C | wind direction | speed KPH | gust KPH | rain 1hr cm | rain 24hr cm | rain mn cm | humidity % | barometer mb |
| 20260505051543 | 5 | 205 | 20.9 | 30.6 | 0.00 | 0.58 | 0.00 | 88 | 1006.0 |
| 20260505050118 | 5 | 205 | 19.3 | 35.4 | 0.00 | 0.58 | 0.00 | 87 | 1005.9 |
| 20260505041548 | 6 | 205 | 19.3 | 27.4 | 0.00 | 0.58 | 0.00 | 86 | 1005.7 |
| 20260505040031 | 6 | 205 | 17.7 | 27.4 | 0.00 | 0.58 | 0.00 | 86 | 1005.5 |
| 20260505034528 | 6 | 205 | 19.3 | 30.6 | 0.00 | 0.58 | 0.00 | 86 | 1005.2 |
| 20260505033026 | 6 | 205 | 12.9 | 29.0 | 0.00 | 0.58 | 0.00 | 85 | 1005.0 |
| 20260505031522 | 6 | 205 | 20.9 | 32.2 | 0.00 | 0.58 | 0.00 | 86 | 1004.8 |
| 20260505030021 | 6 | 205 | 17.7 | 29.0 | 0.03 | 0.58 | 0.00 | 86 | 1004.6 |
| 20260505024522 | 6 | 205 | 17.7 | 32.2 | 0.05 | 0.58 | 0.58 | 86 | 1004.4 |
| 20260505023017 | 5 | 205 | 19.3 | 30.6 | 0.05 | 0.58 | 0.58 | 87 | 1004.2 |
| 20260505021515 | 6 | 205 | 17.7 | 29.0 | 0.05 | 0.58 | 0.58 | 86 | 1004.2 |
| 20260505020017 | 6 | 205 | 19.3 | 29.0 | 0.05 | 0.56 | 0.56 | 84 | 1004.0 |
| 20260505014512 | 7 | 205 | 22.5 | 32.2 | 0.00 | 0.51 | 0.51 | 80 | 1003.8 |
| 20260505013011 | 7 | 205 | 20.9 | 45.1 | 0.00 | 0.51 | 0.51 | 78 | 1003.6 |
| 20260505011510 | 7 | 205 | 20.9 | 35.4 | 0.00 | 0.51 | 0.51 | 79 | 1003.3 |
| 20260505010007 | 7 | 205 | 22.5 | 30.6 | 0.00 | 0.56 | 0.51 | 77 | 1003.2 |
| 20260505004507 | 7 | 205 | 19.3 | 32.2 | 0.00 | 0.56 | 0.51 | 75 | 1003.2 |
| 20260505003006 | 7 | 205 | 17.7 | 29.0 | 0.00 | 0.56 | 0.51 | 73 | 1003.3 |
| 20260505001504 | 7 | 205 | 25.7 | 38.6 | 0.00 | 0.56 | 0.51 | 72 | 1003.1 |
| 20260505000003 | 7 | 205 | 19.3 | 32.2 | 0.00 | 0.64 | 0.51 | 73 | 1002.8 |
| 20260504234614 | 6 | 205 | 20.9 | 30.6 | 0.00 | 0.64 | 0.51 | 74 | 1002.4 |
| 20260504233108 | 6 | 205 | 17.7 | 29.0 | 0.00 | 0.64 | 0.51 | 75 | 1002.4 |
| 20260504231557 | 6 | 205 | 16.1 | 22.5 | 0.00 | 0.64 | 0.51 | 75 | 1002.1 |
| 20260504230056 | 6 | 205 | 14.5 | 24.1 | 0.00 | 0.64 | 0.51 | 74 | 1002.1 |
| 20260504224608 | 6 | 205 | 16.1 | 25.7 | 0.00 | 0.81 | 0.51 | 73 | 1001.9 |
| 20260504223054 | 6 | 205 | 16.1 | 22.5 | 0.00 | 0.81 | 0.51 | 73 | 1001.9 |
| 20260504221555 | 7 | 205 | 12.9 | 25.7 | 0.00 | 0.81 | 0.51 | 72 | 1001.8 |
| 20260504220051 | 7 | 205 | 14.5 | 29.0 | 0.00 | 0.81 | 0.51 | 71 | 1001.7 |
| 20260504214550 | 7 | 205 | 17.7 | 27.4 | 0.00 | 0.99 | 0.51 | 71 | 1001.5 |
| 20260504213114 | 7 | 205 | 14.5 | 25.7 | 0.00 | 0.99 | 0.51 | 71 | 1001.4 |
| 20260504211546 | 8 | 205 | 16.1 | 32.2 | 0.00 | 0.99 | 0.51 | 72 | 1001.3 |
| 20260504210047 | 8 | 205 | 14.5 | 27.4 | 0.00 | 0.99 | 0.51 | 74 | 1001.1 |
| 20260504204542 | 7 | 205 | 20.9 | 37.0 | 0.00 | 1.12 | 0.51 | 74 | 1000.7 |
| 20260504203040 | 7 | 205 | 19.3 | 35.4 | 0.00 | 1.12 | 0.51 | 74 | 1000.6 |
| 20260504201537 | 7 | 205 | 20.9 | 37.0 | 0.00 | 1.12 | 0.51 | 75 | 1000.3 |
| 20260504200033 | 7 | 205 | 19.3 | 27.4 | 0.00 | 1.12 | 0.51 | 77 | 1000.1 |
| 20260504194529 | 7 | 205 | 19.3 | 32.2 | 0.00 | 1.24 | 0.51 | 79 | 1000.0 |
| 20260504193027 | 7 | 205 | 16.1 | 24.1 | 0.00 | 1.24 | 0.51 | 82 | 999.7 |
| 20260504191525 | 7 | 205 | 14.5 | 29.0 | 0.00 | 1.24 | 0.51 | 82 | 999.7 |
| 20260504190023 | 6 | 205 | 14.5 | 29.0 | 0.00 | 1.24 | 0.51 | 83 | 999.6 |
| 20260504184521 | 6 | 205 | 16.1 | 25.7 | 0.00 | 1.24 | 0.51 | 84 | 999.5 |
| 20260504183023 | 6 | 217 | 14.5 | 29.0 | 0.00 | 1.24 | 0.51 | 84 | 999.4 |
| 20260504181518 | 6 | 189 | 11.3 | 24.1 | 0.00 | 1.24 | 0.51 | 85 | 999.2 |
| 20260504180015 | 6 | 244 | 20.9 | 37.0 | 0.00 | 1.24 | 0.51 | 85 | 999.2 |
| 20260504174512 | 5 | 205 | 16.1 | 27.4 | 0.00 | 1.24 | 0.51 | 87 | 999.1 |
| 20260504173023 | 5 | 232 | 19.3 | 33.8 | 0.00 | 1.24 | 0.51 | 88 | 998.8 |
| 20260504171517 | 5 | 216 | 11.3 | 27.4 | 0.00 | 1.24 | 0.51 | 89 | 998.6 |
| 20260504081527 | 2 | 247 | 16.1 | 24.1 | 0.08 | 0.94 | 0.23 | 95 | 977.3 |